Retour au catalogue

COSMOS 736

ActifMilitaireLEO
NORAD 7825·PAYLOAD·🇷🇺 Russia

Lancé May 28, 1975 depuis Plesetsk Cosmodrome

Loading…

Prochains Passages (prochaines 24 heures)

TLE

FraisSource: Space-Track

Époque: Sep 14, 2026, 11:58 UTC

1 07825U 75045E   26257.49911428  .00000004  00000-0  13842-3 0  9998
2 07825  74.0210 332.1178 0010880 354.6195  16.8798 12.46889882335076

Suivez COSMOS 736 en temps réel avec AllMySat

Download on the App Store